Wetbulb
74.93 74.95 74.69 69.30 56.44 57.46 54.67 56.57 61.03 58.40 58.11 62.69 64.26 62.24 60.29 62.11 59.24 54.62 69.06 71.29 72.45 72.61 74.37 75.15 77.07 76.28 76.20 76.38 76.58 76.49 76.25 76.84 76.84 76.47 76.53 76.70 76.62 76.41 76.96 75.82 75.74 77.19 76.76 76.93 76.89 76.83 76.79 76.78 76.99
70.83 72.91 71.73 63.62 53.81 50.12 52.39 58.29 57.56 59.82 62.09 63.94 64.23 63.30 61.42 60.30 66.20 67.18 68.79 71.71 73.01 73.12 72.66 73.98 76.63 76.46 75.87 76.04 76.89 76.46 76.04 76.34 76.76 76.79 76.64 76.76 76.59 76.57 76.41 76.09 76.49 77.00 76.96 76.90 77.03 76.96 76.20 75.97 75.80
69.57 71.58 63.89 58.41 54.55 50.72 52.02 59.34 60.20 61.64 63.92 63.67 62.82 65.09 63.22 61.91 66.49 67.26 70.42 71.60 72.30 71.82 72.08 73.47 75.75 75.70 75.99 76.63 76.79 76.06 75.61 75.78 76.31 76.34 76.36 76.16 76.46 76.36 75.79 75.17 76.71 77.09 77.08 77.12 76.83 76.68 76.32 76.17 75.71
69.93 68.09 64.55 56.27 52.18 55.61 56.72 59.97 62.20 62.01 64.05 64.53 63.50 60.11 65.06 68.03 67.46 69.58 71.79 71.86 71.35 71.85 73.04 74.37 75.50 75.10 75.36 75.53 75.59 75.64 75.36 75.21 76.10 76.32 76.12 74.84 75.34 76.64 76.69 76.77 76.86 76.79 76.71 76.26 75.84 75.69 75.16 75.20 74.35
70.81 66.04 57.39 54.38 54.62 57.86 59.38 62.53 63.29 60.94 62.15 62.35 62.86 60.29 62.17 67.41 69.67 70.54 70.25 70.95 70.30 70.73 72.00 73.03 75.36 75.45 75.49 75.50 75.48 75.34 75.67 74.93 74.85 75.89 76.06 75.18 75.86 77.14 77.01 76.85 76.67 76.40 76.04 75.95 75.87 76.00 75.70 75.73 74.78
62.90 64.28 55.71 51.66 54.70 57.71 59.87 63.09 63.49 62.51 62.82 62.61 61.87 61.58 61.99 67.97 68.56 69.40 69.97 70.06 71.16 70.85 71.70 72.84 75.20 75.66 75.54 75.58 75.63 75.87 75.66 75.31 74.90 75.12 75.50 75.40 75.39 75.95 76.14 76.18 76.40 76.24 76.02 76.31 76.39 76.51 76.55 76.07 75.81
62.19 59.35 54.37 55.69 55.35 56.98 59.46 63.52 62.34 61.60 61.85 61.88 64.58 59.76 62.72 65.90 68.51 69.40 69.62 69.82 70.26 70.88 71.06 71.03 71.80 74.12 75.43 75.34 75.71 75.76 75.33 74.90 74.76 75.01 75.66 75.06 74.72 75.37 75.80 76.31 76.46 76.37 76.35 76.43 76.23 75.94 76.26 75.38 75.33
63.89 60.12 55.71 57.01 54.98 55.33 62.25 63.57 65.43 62.39 61.16 66.63 66.05 59.65 59.57 65.32 68.80 69.43 69.59 69.17 69.56 70.09 69.57 68.98 70.29 71.45 71.21 71.47 74.98 75.72 75.14 75.06 75.24 75.09 73.99 73.72 73.66 74.26 75.07 75.85 76.11 76.07 76.10 76.22 75.86 75.86 75.06 75.13 74.74
66.26 54.73 52.61 55.93 56.59 57.65 62.13 61.34 65.92 65.86 63.56 65.08 65.86 64.51 65.70 67.91 69.34 68.40 68.12 68.48 68.86 69.16 68.44 68.66 69.61 69.63 70.61 71.60 73.21 74.95 75.06 74.89 74.54 72.72 73.83 73.35 70.72 71.50 73.07 74.94 75.64 76.07 75.88 75.95 75.90 75.50 71.47 71.95 73.39
59.46 53.55 55.04 61.31 60.05 59.21 62.75 63.94 64.45 62.12 62.00 62.67 63.60 66.16 67.51 67.95 67.61 66.54 65.56 65.72 66.72 67.63 68.21 68.30 68.86 69.40 70.23 72.29 71.36 70.32 70.60 68.30 67.69 67.36 68.53 71.04 72.00 72.02 73.76 74.76 76.39 76.29 76.54 76.00 76.42 73.64 72.57 71.66 70.03
63.12 58.47 60.44 62.67 61.57 62.90 62.84 62.99 64.08 61.17 58.90 62.74 62.27 64.29 66.01 66.73 66.64 65.36 65.27 66.23 66.42 67.74 68.50 69.06 69.42 69.80 68.62 70.13 70.65 70.20 69.06 69.25 70.00 69.11 70.77 71.63 72.18 71.75 72.35 72.47 72.79 72.58 75.01 73.20 74.75 71.43 70.82 70.33 69.55
59.72 64.35 63.72 64.67 64.30 62.51 61.77 63.85 61.26 62.34 61.49 65.79 65.61 65.87 65.84 65.92 65.97 64.87 64.64 66.58 66.03 67.30 68.17 69.26 69.51 69.67 68.40 68.68 69.47 69.28 67.53 68.13 69.62 70.39 70.84 70.95 70.75 70.60 70.59 71.14 71.42 71.17 71.75 71.38 72.01 70.78 70.91 70.65 70.23
61.30 63.09 64.08 65.59 63.74 64.40 64.25 62.38 63.07 62.53 64.39 66.74 66.85 66.21 65.49 65.75 66.08 66.34 66.16 67.25 66.99 66.91 67.71 68.52 69.51 69.73 68.82 68.86 69.60 70.83 69.77 68.51 68.73 70.18 70.23 70.90 70.23 69.65 70.57 70.88 70.25 70.77 70.83 71.00 71.02 71.67 71.28 71.17 70.83
62.24 63.46 62.56 63.02 62.44 63.63 60.73 61.66 63.17 63.43 66.16 64.35 65.38 64.59 65.61 66.22 66.50 66.39 66.20 67.40 67.61 67.84 67.85 69.81 69.68 70.14 69.42 68.61 68.95 70.14 69.28 70.01 69.47 69.89 69.69 69.63 70.01 70.09 70.23 69.73 70.03 70.13 69.11 69.37 71.13 70.75 71.27 71.27 72.01
60.69 59.02 60.55 60.99 61.16 61.35 62.27 58.56 58.71 63.17 64.55 63.32 64.39 63.45 65.48 66.35 66.33 66.17 67.06 67.18 67.87 68.57 69.76 66.83 66.70 70.43 69.35 68.56 69.09 69.90 70.62 71.44 70.20 70.11 70.50 71.03 71.23 70.30 71.52 70.57 67.74 64.02 68.41 68.95 71.16 71.49 72.18 70.75 71.89
55.99 58.68 54.87 60.13 61.95 62.24 59.80 53.44 59.17 62.32 63.85 62.92 64.05 63.58 63.79 65.06 65.56 66.73 67.65 67.33 68.29 69.08 69.01 67.65 69.35 69.79 69.85 69.06 69.74 69.49 69.17 70.30 69.81 69.75 70.84 71.64 72.61 72.92 70.71 71.29 71.26 71.51 68.16 71.66 70.84 69.45 71.86 67.69 66.90
56.62 52.04 54.78 56.82 62.08 60.61 57.84 55.18 60.08 62.38 62.01 62.10 63.79 62.99 63.16 63.62 64.85 66.29 66.87 66.92 68.39 68.13 67.06 68.11 70.16 69.39 69.73 69.64 69.64 68.62 69.17 69.21 69.56 69.61 70.20 71.47 72.45 68.50 67.81 67.41 70.79 72.49 71.22 71.01 68.07 72.34 70.40 67.13 68.28
49.37 50.36 54.42 53.81 59.59 59.16 56.04 55.69 59.62 60.81 61.18 62.31 62.67 62.68 62.81 62.97 64.43 66.04 66.75 67.23 67.86 66.98 68.25 68.99 70.25 69.85 70.11 69.56 68.71 69.08 67.67 68.64 69.19 69.86 70.23 71.08 71.66 67.19 66.22 67.40 70.64 72.20 72.07 72.33 68.23 70.04 68.57 68.41 66.68
53.37 52.40 54.45 57.02 60.82 57.73 55.32 56.55 57.71 59.51 59.88 60.30 62.09 61.94 62.51 61.38 63.61 66.17 67.02 67.65 67.16 66.59 66.59 68.12 69.39 67.90 69.69 68.37 68.22 66.79 66.68 68.40 70.17 70.24 71.70 71.06 71.85 67.80 64.11 69.68 72.67 71.52 71.06 71.95 72.20 70.44 67.80 64.60 64.66
53.95 52.73 54.18 56.22 60.62 58.41 56.95 57.31 59.05 58.93 58.79 60.38 61.11 62.36 62.76 63.98 64.38 65.38 65.51 66.87 67.01 65.94 67.44 68.49 68.91 68.35 68.74 68.85 69.03 68.80 67.73 67.80 70.08 70.80 71.44 71.08 71.64 71.78 72.05 72.56 71.04 71.71 71.05 68.88 69.80 69.29 67.49 66.17 65.23
51.60 50.80 52.97 54.41 58.70 57.59 56.52 52.73 52.46 58.31 60.32 61.01 61.24 63.28 64.21 63.74 64.57 64.87 66.04 66.07 66.68 66.34 68.39 68.98 68.49 68.42 68.38 69.64 68.96 69.39 68.24 70.05 69.67 69.91 69.30 69.99 71.19 71.40 72.07 72.98 69.34 68.76 69.11 68.07 66.95 68.94 66.26 62.56 65.52
46.28 55.34 56.75 57.42 54.21 47.97 55.69 43.86 51.49 54.11 58.31 60.39 60.92 61.63 63.16 63.40 64.26 65.48 66.20 66.33 66.72 68.04 69.08 69.64 69.50 69.14 70.30 69.60 67.70 67.62 66.75 66.42 68.49 68.51 68.60 69.28 71.36 70.64 72.26 72.44 68.80 67.71 65.70 66.65 67.01 71.87 68.43 65.01 63.11
46.18 56.37 55.94 58.33 53.81 50.34 51.63 44.98 49.01 54.41 53.73 57.48 60.51 61.02 63.06 63.17 63.36 64.50 65.52 66.31 68.04 69.27 69.07 69.05 69.46 69.23 70.18 69.97 67.87 67.02 67.14 66.17 67.34 68.69 69.32 68.10 69.73 70.57 72.52 72.02 69.15 66.51 63.62 63.28 65.40 71.07 68.45 68.30 66.42
50.30 51.78 52.05 51.26 49.35 42.20 47.39 47.90 47.17 50.37 54.24 57.10 59.88 61.64 63.02 62.95 63.37 64.82 64.16 67.22 68.24 69.14 68.45 70.89 69.62 69.02 69.27 69.99 69.29 67.48 67.67 65.70 66.64 65.52 68.92 69.13 69.09 70.58 71.77 72.34 71.13 69.92 69.85 68.44 68.44 69.95 71.53 72.08 71.15
47.12 43.79 39.40 39.67 39.44 38.94 44.16 46.63 48.55 54.26 56.45 58.04 58.39 61.55 63.00 63.90 63.75 63.89 64.67 66.10 67.32 67.41 67.97 69.60 70.16 69.35 69.64 69.48 70.10 69.68 68.29 67.23 66.83 66.12 68.83 68.74 68.88 70.35 71.28 70.93 71.20 71.81 71.75 71.38 72.62 72.15 71.84 71.79 70.85
43.73 43.52 40.05 35.88 37.36 41.66 47.35 43.16 48.41 57.51 59.57 60.40 60.75 62.69 63.67 63.43 64.36 64.29 65.53 65.75 66.81 67.91 67.17 67.78 69.82 69.75 69.38 70.61 70.08 70.22 68.92 66.64 65.66 66.04 69.51 69.59 69.45 70.30 71.10 72.10 71.30 71.63 71.43 71.54 72.54 72.69 72.71 72.42 72.16
44.44 42.50 46.52 41.64 41.36 41.44 45.17 49.22 54.95 58.52 57.68 58.84 58.66 61.00 62.76 63.96 64.34 64.83 65.68 65.74 66.07 67.07 66.10 66.83 68.55 69.82 69.50 71.19 70.56 69.79 70.00 69.27 68.90 69.18 68.98 70.43 70.81 71.70 72.03 72.40 72.27 72.12 72.32 70.96 70.81 71.60 71.26 71.51 70.75
48.82 49.95 42.84 40.47 36.51 37.28 43.48 46.35 45.43 52.05 56.16 57.87 58.97 59.75 62.37 64.11 64.40 65.00 64.88 65.34 66.46 66.44 65.81 67.26 67.56 69.75 70.37 70.42 71.60 70.95 69.38 70.38 70.98 70.75 70.28 69.71 69.84 69.42 69.86 69.98 70.03 71.35 71.50 71.45 72.15 70.75 71.38 70.90 71.45
45.69 42.29 40.94 41.83 42.15 38.41 39.70 44.31 52.16 53.02 57.04 58.05 58.69 59.81 61.07 63.12 64.80 64.61 64.71 65.49 67.07 67.41 67.33 67.17 67.35 70.08 70.05 70.27 71.08 71.20 70.79 69.97 70.89 71.33 70.93 70.51 70.20 69.47 68.63 68.01 67.82 69.61 71.28 70.33 70.36 71.20 71.44 70.76 70.51
47.61 44.59 41.17 40.61 40.58 41.34 41.65 43.24 55.40 57.96 58.54 59.04 58.47 59.13 60.16 63.43 64.24 65.06 65.29 65.86 65.89 66.09 67.16 67.37 67.73 71.04 70.87 71.00 70.70 70.84 71.18 71.37 70.72 71.11 71.10 70.73 69.43 69.20 67.76 67.95 67.18 69.03 70.15 71.13 71.08 71.12 71.48 70.78 69.69
MSLP
1010.58 1010.59 1010.87 1011.23 1012.25 1012.37 1011.73 1010.56 1009.19 1009.01 1009.26 1009.87 1009.49 1010.11 1011.48 1012.12 1012.44 1013.55 1013.13 1013.65 1014.04 1014.43 1014.48 1014.55 1014.61 1014.65 1014.71 1014.79 1014.85 1014.88 1014.96 1015.05 1015.11 1015.16 1015.35 1015.57 1015.74 1015.97 1016.18 1016.36 1016.46 1016.33 1016.53 1016.81 1017.05 1017.17 1017.01 1016.90 1017.05
1010.48 1010.73 1010.98 1011.91 1013.10 1013.37 1012.57 1011.42 1009.97 1009.17 1009.65 1009.86 1010.15 1010.89 1011.34 1012.74 1012.92 1013.44 1013.84 1014.00 1013.98 1014.35 1014.55 1014.63 1014.67 1014.68 1014.74 1014.77 1014.74 1014.87 1015.02 1015.10 1015.20 1015.25 1015.46 1015.67 1015.98 1016.18 1016.33 1016.60 1016.62 1016.60 1016.89 1017.07 1017.12 1017.08 1016.90 1017.05 1017.12
1010.78 1010.57 1011.76 1012.90 1014.00 1014.40 1013.87 1012.43 1010.48 1009.88 1009.80 1009.51 1010.26 1011.21 1011.83 1012.79 1013.28 1013.64 1013.74 1014.10 1014.18 1014.55 1014.70 1014.68 1014.71 1014.71 1014.71 1014.70 1014.73 1014.82 1014.95 1015.06 1015.20 1015.39 1015.52 1015.85 1016.12 1016.27 1016.64 1016.75 1016.69 1016.94 1016.98 1017.04 1016.99 1016.92 1016.91 1016.99 1017.06
1010.80 1011.65 1012.82 1013.61 1014.55 1014.46 1014.03 1012.87 1012.00 1010.58 1009.85 1010.23 1010.75 1011.99 1012.70 1012.77 1013.18 1013.74 1014.16 1014.13 1014.49 1014.66 1014.68 1014.67 1014.76 1014.80 1014.73 1014.68 1014.82 1014.86 1014.97 1015.05 1015.19 1015.48 1015.55 1015.89 1016.16 1016.30 1016.52 1016.67 1016.85 1017.08 1017.06 1017.00 1016.97 1016.82 1016.84 1016.94 1017.10
1010.37 1011.58 1013.15 1014.64 1015.06 1014.61 1013.86 1013.00 1012.53 1011.07 1010.51 1010.81 1010.91 1012.85 1013.32 1013.48 1013.48 1013.94 1014.28 1014.49 1014.47 1014.84 1014.69 1014.69 1014.77 1014.82 1014.77 1014.77 1014.81 1014.88 1014.99 1015.16 1015.39 1015.66 1015.64 1015.95 1016.20 1016.35 1016.50 1016.67 1016.73 1016.86 1016.94 1016.88 1016.83 1017.13 1017.19 1017.16 1017.16
1011.12 1012.00 1013.94 1014.85 1014.96 1014.99 1014.21 1013.05 1012.47 1011.42 1010.80 1011.56 1012.19 1012.80 1014.14 1014.17 1014.04 1014.24 1014.50 1014.68 1014.62 1014.85 1014.86 1014.76 1014.68 1014.71 1014.81 1014.87 1014.90 1014.94 1015.02 1015.20 1015.46 1015.73 1015.86 1016.13 1016.37 1016.49 1016.61 1016.64 1016.66 1016.76 1016.69 1017.06 1017.47 1017.48 1017.41 1017.36 1017.31
1011.43 1012.51 1014.07 1014.63 1014.96 1014.95 1013.70 1012.85 1012.29 1010.80 1010.96 1011.41 1011.90 1013.23 1014.47 1014.52 1014.43 1014.41 1014.73 1014.92 1014.88 1014.88 1014.93 1015.06 1014.97 1014.83 1014.88 1015.04 1015.04 1014.98 1015.05 1015.28 1015.56 1015.81 1016.01 1016.36 1016.50 1016.50 1016.57 1016.57 1016.70 1016.81 1016.86 1017.46 1017.75 1017.61 1017.60 1017.49 1017.32
1011.61 1012.42 1013.47 1014.44 1014.85 1014.46 1013.42 1011.80 1010.85 1009.93 1010.61 1011.24 1011.43 1013.30 1014.15 1014.40 1014.59 1014.76 1015.09 1015.29 1015.36 1015.44 1015.40 1015.47 1015.39 1015.27 1015.47 1015.42 1015.26 1015.20 1015.34 1015.40 1015.82 1016.12 1016.27 1016.49 1016.51 1016.53 1016.53 1016.56 1016.84 1016.90 1017.19 1017.74 1017.77 1017.60 1017.53 1017.21 1017.10
1011.40 1012.49 1012.90 1013.23 1013.86 1013.04 1011.88 1011.51 1010.39 1009.47 1010.29 1010.77 1011.19 1012.36 1013.18 1014.14 1014.60 1015.12 1015.49 1015.80 1015.95 1015.93 1016.00 1015.95 1015.95 1016.07 1016.02 1015.77 1015.48 1015.39 1015.61 1015.84 1016.17 1016.51 1016.52 1016.57 1016.83 1016.66 1016.68 1016.73 1016.90 1017.04 1017.24 1017.82 1017.67 1017.69 1017.40 1017.64 1017.62
1011.30 1012.02 1011.70 1011.72 1012.02 1011.88 1011.48 1011.31 1010.62 1010.09 1010.70 1011.38 1012.20 1012.97 1013.65 1014.22 1014.73 1015.16 1015.57 1015.85 1016.17 1016.29 1016.47 1016.45 1016.33 1016.28 1016.32 1015.96 1015.84 1015.90 1015.95 1016.32 1016.66 1016.92 1016.94 1016.64 1016.78 1016.89 1016.87 1016.97 1017.00 1017.05 1017.18 1017.64 1018.26 1017.99 1017.58 1018.24 1018.54
1010.43 1010.50 1010.89 1011.01 1011.28 1011.39 1011.78 1011.15 1009.96 1010.06 1011.08 1010.99 1011.77 1012.81 1013.74 1014.11 1014.76 1014.97 1015.48 1015.84 1016.01 1016.23 1016.57 1016.70 1016.45 1016.26 1016.45 1016.30 1016.29 1016.34 1016.46 1016.66 1016.80 1016.85 1016.84 1016.84 1016.77 1017.15 1017.17 1017.16 1017.28 1017.15 1017.30 1018.18 1018.73 1018.42 1017.86 1018.10 1018.67
1010.03 1010.08 1010.35 1010.68 1011.03 1011.54 1011.59 1011.67 1011.72 1011.18 1010.77 1011.31 1011.55 1012.36 1013.47 1014.08 1014.42 1014.81 1015.29 1015.84 1016.04 1016.53 1016.72 1016.84 1016.54 1016.45 1016.57 1016.65 1016.58 1016.57 1016.54 1016.64 1016.87 1017.06 1017.06 1016.94 1017.03 1017.30 1017.32 1017.33 1017.51 1017.61 1017.70 1018.42 1018.99 1019.44 1018.88 1018.15 1018.56
1010.55 1010.63 1010.83 1010.80 1011.56 1011.72 1011.97 1012.25 1011.97 1011.15 1011.06 1011.56 1011.88 1012.72 1013.20 1013.87 1014.37 1014.58 1014.90 1015.35 1015.94 1016.32 1016.69 1016.89 1016.76 1016.77 1016.84 1016.87 1016.81 1016.73 1016.68 1016.71 1017.00 1017.17 1017.22 1017.23 1017.40 1017.58 1017.51 1017.33 1017.48 1017.56 1017.56 1017.83 1019.34 1020.03 1019.22 1018.58 1018.72
1011.63 1011.16 1011.48 1011.60 1011.91 1011.99 1012.30 1012.75 1012.19 1011.95 1011.75 1011.46 1011.95 1012.68 1013.07 1013.34 1013.95 1014.51 1014.94 1015.23 1015.72 1016.09 1016.27 1016.61 1016.74 1016.72 1016.90 1016.89 1016.71 1016.66 1016.74 1017.04 1017.19 1017.19 1017.28 1017.53 1017.52 1017.60 1017.35 1017.14 1017.16 1017.19 1017.33 1018.03 1019.00 1019.80 1019.20 1018.73 1018.94
1011.86 1012.13 1012.04 1011.92 1012.13 1012.53 1012.57 1013.49 1013.41 1012.73 1012.11 1011.61 1011.76 1012.31 1012.71 1013.19 1013.47 1013.90 1014.10 1014.67 1015.16 1015.59 1015.88 1016.26 1016.50 1016.57 1016.79 1016.85 1016.78 1016.82 1017.04 1017.09 1017.29 1017.29 1017.20 1017.41 1017.45 1017.34 1016.99 1016.90 1017.04 1017.33 1017.83 1018.19 1018.60 1019.70 1019.48 1019.30 1018.63
1012.83 1012.40 1012.40 1011.92 1012.00 1012.23 1012.42 1013.87 1013.83 1012.68 1012.49 1011.93 1012.02 1011.96 1012.42 1012.87 1013.12 1013.42 1013.78 1014.23 1014.68 1015.21 1015.70 1016.09 1016.22 1016.50 1016.52 1016.75 1016.67 1016.87 1017.14 1017.06 1017.05 1017.01 1017.17 1017.60 1017.25 1017.02 1016.90 1016.98 1017.13 1016.97 1017.35 1018.00 1018.72 1018.22 1018.74 1018.92 1018.71
1012.50 1012.59 1012.19 1011.73 1011.56 1011.72 1012.24 1012.84 1012.72 1012.54 1012.76 1012.32 1011.98 1011.60 1011.84 1012.38 1013.01 1013.21 1013.38 1013.81 1014.20 1014.70 1015.33 1015.71 1015.80 1016.09 1016.19 1016.33 1016.47 1016.80 1016.96 1016.86 1016.92 1016.94 1017.13 1016.87 1017.11 1017.11 1017.01 1017.41 1017.27 1016.98 1016.81 1017.54 1018.87 1018.71 1018.72 1019.51 1019.04
1011.90 1012.05 1011.81 1011.30 1011.29 1011.65 1012.19 1012.23 1012.03 1012.23 1012.36 1012.17 1012.09 1011.91 1011.94 1012.15 1012.61 1012.83 1013.16 1013.50 1013.86 1014.38 1014.93 1015.19 1015.65 1016.14 1016.11 1016.23 1016.41 1016.71 1017.09 1016.67 1016.72 1016.85 1016.94 1016.90 1016.99 1016.89 1017.06 1017.48 1017.10 1017.00 1017.22 1017.76 1018.82 1019.45 1019.64 1019.06 1019.36
1009.83 1010.69 1011.59 1011.69 1011.12 1011.59 1012.24 1012.60 1012.54 1012.27 1012.18 1011.68 1011.64 1011.89 1012.15 1012.25 1012.68 1012.82 1012.90 1013.35 1013.80 1014.30 1014.89 1014.95 1015.42 1016.02 1016.26 1016.40 1016.57 1016.77 1016.85 1016.91 1016.59 1016.68 1016.62 1016.86 1016.92 1017.00 1017.28 1017.39 1017.04 1016.84 1017.37 1017.61 1018.23 1018.75 1018.69 1018.96 1019.06
1009.09 1009.98 1010.65 1010.36 1010.58 1011.55 1012.28 1012.56 1012.52 1012.12 1011.47 1011.21 1011.22 1011.66 1011.58 1012.44 1012.68 1012.91 1013.20 1013.22 1013.69 1014.02 1014.68 1015.09 1015.26 1015.60 1016.00 1016.01 1016.15 1016.29 1016.52 1016.64 1016.29 1016.44 1016.47 1016.77 1016.97 1017.23 1017.31 1017.45 1017.41 1017.37 1017.33 1017.76 1018.21 1018.21 1018.30 1018.72 1018.72
1008.63 1009.09 1009.45 1009.79 1010.38 1011.65 1012.35 1012.59 1012.42 1011.76 1011.30 1011.13 1011.29 1011.20 1011.31 1011.91 1012.40 1012.82 1013.10 1013.52 1013.99 1014.15 1014.47 1014.79 1015.06 1015.32 1015.56 1015.88 1016.20 1016.43 1016.62 1016.75 1016.81 1016.82 1016.82 1016.78 1016.76 1017.11 1017.28 1017.43 1017.44 1017.41 1017.44 1018.10 1018.47 1018.40 1018.21 1018.75 1019.23
1007.40 1007.23 1007.86 1009.20 1010.31 1011.49 1011.80 1012.47 1011.82 1011.08 1011.16 1010.89 1010.88 1011.32 1011.50 1011.96 1012.21 1012.33 1012.57 1013.07 1013.80 1014.07 1014.60 1014.66 1014.91 1015.19 1015.36 1015.88 1016.28 1016.65 1017.00 1017.29 1017.28 1017.10 1016.90 1016.66 1016.73 1016.98 1017.18 1017.45 1017.54 1017.41 1017.72 1018.17 1018.74 1018.42 1018.34 1018.69 1019.36
1005.25 1005.65 1007.08 1008.45 1009.60 1010.54 1011.83 1012.30 1010.45 1010.66 1010.56 1010.55 1010.47 1011.02 1011.28 1011.60 1011.77 1012.13 1012.13 1012.52 1013.20 1013.63 1014.10 1014.77 1015.01 1015.22 1015.40 1015.70 1016.17 1016.80 1017.22 1017.47 1017.26 1017.22 1017.05 1016.92 1016.83 1016.99 1017.10 1017.17 1017.42 1017.81 1018.10 1018.13 1018.79 1018.80 1018.83 1018.86 1019.23
1003.93 1005.32 1007.06 1008.78 1010.18 1010.95 1010.46 1011.40 1010.58 1010.23 1008.78 1009.27 1009.58 1010.05 1010.65 1011.36 1011.69 1011.90 1012.24 1012.84 1013.13 1013.56 1013.92 1014.30 1015.09 1015.17 1015.41 1015.62 1016.05 1016.56 1017.02 1017.42 1017.51 1017.54 1017.47 1017.10 1016.93 1016.91 1016.77 1016.96 1017.04 1017.43 1017.64 1017.80 1018.04 1018.80 1018.96 1018.84 1018.78
1004.09 1006.34 1008.14 1009.53 1010.52 1010.81 1010.07 1010.17 1008.73 1007.60 1007.56 1007.47 1007.92 1009.12 1010.04 1010.73 1011.39 1011.76 1012.37 1012.79 1013.08 1013.33 1013.75 1014.12 1014.70 1015.01 1015.18 1015.34 1015.58 1016.10 1016.47 1017.04 1017.31 1017.50 1017.40 1017.10 1016.95 1017.03 1016.84 1016.89 1016.97 1017.25 1017.32 1017.52 1017.55 1018.18 1018.35 1018.51 1018.59
1004.32 1005.84 1007.78 1009.36 1010.84 1010.55 1009.59 1009.31 1007.54 1006.39 1006.32 1006.92 1007.62 1008.26 1009.32 1010.21 1010.55 1011.30 1011.74 1012.22 1012.60 1012.57 1013.52 1014.02 1014.38 1014.74 1014.82 1014.94 1015.10 1015.54 1015.89 1016.36 1016.78 1016.96 1017.08 1016.80 1016.67 1016.68 1016.49 1016.82 1016.81 1016.82 1017.21 1017.35 1017.27 1017.70 1017.85 1017.97 1018.21
1004.07 1005.39 1006.12 1008.64 1010.27 1010.68 1010.78 1009.31 1007.09 1006.67 1006.42 1007.41 1007.97 1008.38 1008.82 1009.56 1010.15 1010.83 1011.20 1011.41 1011.72 1012.11 1012.76 1013.24 1013.88 1014.34 1014.52 1014.48 1014.88 1015.12 1015.48 1015.82 1016.08 1016.31 1016.88 1016.89 1016.65 1016.60 1016.57 1016.76 1017.11 1017.03 1017.08 1017.19 1017.40 1017.50 1017.64 1017.71 1017.64
1003.15 1004.37 1006.50 1008.45 1010.38 1011.34 1011.21 1009.38 1008.13 1007.61 1007.34 1007.28 1008.20 1008.53 1008.84 1009.15 1009.86 1010.63 1011.03 1011.33 1011.91 1011.89 1012.33 1013.12 1013.34 1013.65 1013.80 1014.14 1014.49 1014.90 1015.08 1015.32 1015.48 1015.86 1016.47 1016.80 1016.79 1016.52 1016.24 1016.46 1016.66 1016.96 1017.14 1017.04 1017.33 1017.50 1017.50 1017.58 1017.61
1003.12 1004.11 1005.76 1007.37 1009.10 1010.72 1011.05 1009.42 1006.93 1007.05 1006.98 1007.30 1007.83 1008.21 1008.46 1008.59 1008.97 1009.74 1010.48 1011.12 1011.28 1011.31 1011.99 1012.51 1013.01 1013.50 1013.70 1013.71 1014.35 1014.66 1014.89 1014.94 1015.37 1015.57 1015.80 1016.21 1016.51 1016.52 1016.42 1016.22 1016.34 1016.55 1016.70 1016.86 1017.02 1017.27 1017.41 1017.48 1017.49
1002.40 1003.46 1005.15 1007.24 1008.97 1009.78 1009.58 1008.49 1006.67 1006.23 1006.70 1007.43 1007.57 1007.74 1008.21 1008.48 1009.01 1009.61 1010.22 1011.01 1011.78 1012.04 1011.96 1012.64 1013.24 1013.56 1013.69 1013.59 1013.86 1014.08 1014.56 1014.68 1014.92 1015.18 1015.35 1015.66 1015.94 1016.17 1016.26 1016.28 1016.28 1016.62 1016.81 1016.79 1016.81 1017.13 1017.22 1017.36 1017.51
Wind_Speed
6 5 1 3 5 3 3 2 4 6 6 6 14 14 10 9 3 4 7 9 13 10 8 9 12 13 13 12 12 11 11 12 12 13 12 11 10 10 10 10 9 9 12 12 12 11 9 8 9
3 3 1 2 5 4 5 9 12 15 15 18 17 13 12 7 6 8 7 10 12 10 5 6 10 12 13 12 11 12 12 12 11 12 11 11 11 11 11 9 9 12 11 11 11 10 9 8 7
2 3 4 4 3 2 3 8 11 15 15 5 7 6 4 4 5 3 7 11 11 7 6 7 10 11 12 11 11 11 12 12 12 11 12 11 12 11 9 9 9 11 10 11 11 8 7 6 5
3 3 3 4 2 5 5 9 10 2 14 12 14 10 5 5 3 7 12 13 12 7 6 10 11 10 10 10 10 10 10 11 12 11 11 10 12 11 11 10 10 11 10 9 7 6 3 0 3
2 1 5 4 1 4 10 15 15 4 6 12 7 5 5 6 14 14 13 11 11 6 5 6 11 11 11 11 11 10 11 11 11 10 11 12 12 11 12 10 11 10 8 8 4 6 4 5 4
5 3 3 3 5 3 9 15 9 4 17 16 14 9 4 7 11 10 12 10 9 8 5 4 12 13 13 12 12 11 11 12 12 12 12 12 13 12 9 10 9 9 8 6 8 9 10 11 12
4 4 2 5 1 2 6 9 13 14 15 7 13 7 6 8 8 12 12 10 8 7 7 4 2 10 13 12 12 13 11 12 13 14 14 13 12 11 8 8 8 6 7 6 9 8 14 13 10
5 4 6 5 6 3 7 6 18 16 6 18 16 8 8 11 11 11 11 9 7 6 4 5 4 5 5 3 13 14 13 13 13 12 14 11 12 7 5 3 2 4 4 6 6 10 9 14 13
4 3 3 8 12 7 15 6 5 9 17 8 5 11 15 16 15 12 9 7 6 6 4 4 5 4 4 2 7 13 14 12 12 10 10 10 3 1 2 1 1 3 2 5 8 8 3 7 8
4 3 8 7 5 6 1 4 7 13 14 16 18 14 18 19 15 13 10 9 5 6 5 4 4 5 2 2 4 4 5 3 4 4 3 3 1 1 3 4 6 5 5 5 15 5 6 9 2
5 4 4 4 10 3 2 7 10 17 14 23 24 23 20 18 14 12 10 8 8 7 6 4 3 4 1 3 1 1 2 2 0 1 1 0 1 2 3 2 2 2 6 3 8 2 5 8 2
1 2 3 5 4 3 3 3 9 1 13 19 23 24 20 18 14 13 12 9 9 8 6 6 5 4 4 1 1 1 3 3 2 1 3 0 1 3 3 2 2 3 2 1 4 3 6 7 7
8 4 5 9 9 7 8 4 2 9 15 20 18 20 19 14 12 10 11 12 9 9 8 7 6 4 4 4 3 2 3 3 1 1 1 1 2 3 3 3 3 4 4 3 8 8 4 12 5
5 8 4 9 6 2 8 4 5 6 7 14 22 18 17 16 14 9 11 11 12 9 10 8 8 5 5 4 4 3 2 2 2 3 3 5 4 3 4 4 5 5 4 1 6 9 13 11 6
13 6 3 5 1 5 15 6 5 6 7 9 0 12 16 15 15 16 15 14 12 10 10 9 9 8 7 7 5 3 3 4 4 4 6 4 5 5 4 2 3 3 2 2 7 8 5 7 6
4 3 3 4 6 5 1 4 7 12 6 5 7 11 18 20 17 14 15 12 12 11 11 10 11 12 8 7 5 4 4 4 4 4 3 6 4 4 4 3 4 3 3 6 5 10 5 5 4
2 2 4 4 9 5 4 5 15 13 5 8 9 15 17 15 15 14 14 13 13 12 10 10 7 7 8 6 5 5 5 5 4 3 4 5 5 3 4 3 0 3 3 3 5 2 2 5 6
6 3 4 1 9 5 5 6 9 9 9 9 2 7 9 15 17 17 13 13 14 11 9 9 7 7 7 4 2 1 3 4 4 4 3 5 3 4 3 3 4 4 4 3 6 5 3 3 4
9 8 4 4 7 6 7 3 6 10 9 9 6 4 4 9 7 13 14 11 14 11 9 8 10 7 5 3 2 2 2 2 2 3 5 5 3 1 2 4 4 3 1 5 6 3 5 4 3
6 9 6 14 7 4 6 6 3 11 15 13 12 8 9 9 7 9 8 12 13 10 9 7 9 8 6 3 2 2 2 1 2 4 5 5 5 5 2 3 2 2 3 6 7 2 2 2 2
5 9 10 4 10 3 4 6 5 6 7 8 7 7 8 16 12 10 9 6 1 6 10 10 9 9 6 5 2 2 3 2 3 2 1 3 4 4 4 5 2 3 3 4 5 3 3 2 4
6 18 15 14 13 6 10 5 6 6 6 11 12 7 11 13 8 13 13 8 5 3 4 9 10 8 6 6 3 3 3 2 2 2 3 4 4 3 4 6 3 2 1 4 3 3 2 4 2
12 12 18 21 13 5 4 2 9 4 6 9 13 12 13 14 12 13 15 11 7 6 7 6 7 7 6 7 6 4 2 1 1 0 2 3 3 4 5 6 6 5 3 2 5 1 3 2 3
4 5 9 6 3 2 6 7 6 6 15 9 12 13 16 15 13 13 6 5 6 5 4 8 8 8 7 7 7 8 7 5 3 2 3 4 4 4 4 6 6 5 4 4 3 4 6 5 3
5 7 4 4 5 6 3 4 10 7 6 15 19 16 17 16 16 13 12 9 7 7 6 6 10 10 8 8 7 7 8 7 7 5 4 5 3 3 5 5 5 4 5 5 4 4 3 4 3
6 10 8 7 4 4 4 1 7 7 11 6 7 14 18 16 14 12 12 12 10 8 6 6 9 11 9 8 8 7 8 5 5 6 4 5 4 4 3 5 5 5 5 5 5 3 3 3 3
4 3 7 8 1 4 5 6 5 5 4 5 6 13 14 17 17 17 15 15 15 14 11 11 7 9 10 10 6 7 7 7 7 7 4 3 3 5 6 6 3 3 5 5 4 3 3 2 2
9 7 4 4 4 3 4 3 6 6 8 7 7 9 8 13 15 14 15 13 6 10 9 7 8 11 12 10 8 7 7 7 6 5 6 7 5 3 7 8 8 7 6 6 5 4 3 3 3
2 1 3 6 7 7 3 7 8 10 12 7 8 11 11 12 15 15 13 10 14 6 5 7 8 8 9 10 5 6 7 8 6 6 6 7 7 7 6 6 5 6 6 7 5 5 5 4 3
9 8 7 6 3 2 4 5 7 8 9 11 9 7 7 12 11 11 13 11 10 8 7 9 6 4 6 8 8 9 8 7 8 8 7 7 8 6 6 6 4 3 5 6 6 6 4 6 5
Wind_Direction
156 154 134 30 57 52 329 281 154 125 59 48 76 89 94 43 44 164 131 131 131 140 147 136 134 134 135 131 131 131 125 122 122 124 123 119 120 121 116 105 110 119 111 111 109 108 110 107 103
165 156 49 78 63 47 322 333 91 94 120 110 88 80 51 64 45 96 96 136 140 140 133 130 131 136 137 139 137 135 133 130 131 127 123 124 121 119 122 119 116 112 111 109 109 115 107 97 99
0 78 70 76 73 40 287 350 101 109 139 126 104 63 68 79 72 73 114 139 132 127 137 145 136 134 138 140 139 142 141 139 137 134 127 121 106 112 121 116 106 108 110 107 100 101 99 107 116
153 26 48 58 150 223 253 305 297 182 101 85 121 74 66 107 103 122 120 114 126 126 145 147 144 143 142 144 146 147 146 143 144 146 131 122 119 115 114 114 111 109 109 103 105 102 102 30 80
59 117 74 75 226 274 287 279 310 144 86 99 100 91 67 44 112 120 120 124 115 117 122 140 151 153 149 150 153 154 153 153 153 146 141 127 125 111 119 122 120 118 124 110 102 61 33 12 38
16 85 68 170 184 227 294 291 303 225 101 106 94 102 68 125 130 125 118 117 120 118 95 128 158 162 156 151 156 152 145 154 154 156 142 134 121 100 109 121 123 129 124 97 62 49 45 34 68
139 76 346 95 135 266 267 259 266 141 142 123 131 104 138 130 136 124 121 118 117 113 115 94 82 161 155 151 152 150 140 148 157 156 132 119 107 94 93 121 123 130 113 92 66 58 70 80 96
111 124 158 142 187 260 240 262 190 154 105 122 138 151 166 160 142 120 113 116 112 108 102 89 67 69 64 155 150 144 139 140 151 142 134 125 113 97 70 95 105 141 122 90 87 70 103 122 135
127 75 162 162 156 217 226 266 187 137 135 163 149 142 154 145 129 116 115 113 115 119 113 91 82 53 56 104 162 144 145 149 134 113 119 94 83 52 346 334 235 203 161 116 106 115 141 105 154
106 161 198 192 183 202 257 242 318 136 147 103 112 123 142 142 141 143 151 145 145 140 129 124 134 126 34 119 93 121 119 79 95 99 52 54 123 237 271 273 239 237 229 165 103 169 301 27 31
188 201 159 206 194 242 326 33 41 121 137 145 145 152 154 153 159 154 158 161 162 156 146 164 161 136 159 110 84 101 93 85 142 176 280 164 243 338 312 318 311 275 269 77 115 61 346 322 27
326 291 359 96 159 107 352 85 66 105 129 149 151 153 160 158 167 166 161 160 168 154 159 164 186 154 134 85 130 167 146 173 217 108 240 224 288 299 287 284 285 282 277 138 125 65 309 303 281
16 92 47 72 92 108 82 47 113 114 141 154 150 155 161 167 167 168 168 163 174 157 174 175 180 175 157 180 201 194 180 182 180 259 277 260 280 267 290 269 244 241 232 208 114 123 217 262 268
283 89 69 93 122 148 79 348 325 64 12 169 160 164 167 168 170 165 167 167 178 170 174 177 189 187 174 197 215 218 210 238 247 261 245 235 236 249 257 234 227 232 222 59 117 165 199 237 255
55 53 5 92 128 110 119 15 332 323 308 163 24 159 164 179 159 174 180 172 170 180 172 180 185 182 183 193 208 224 236 238 227 228 250 224 229 205 213 215 239 297 44 239 43 120 199 217 164
60 94 287 213 180 191 31 178 218 279 273 296 308 168 151 182 180 182 181 170 173 168 177 179 193 186 200 190 198 209 224 242 250 235 235 172 114 128 82 38 3 318 250 75 85 56 287 304 133
110 146 231 163 208 161 190 172 213 221 236 296 292 159 167 163 170 177 183 172 171 174 167 177 169 164 188 197 193 193 216 232 233 224 207 130 127 159 126 100 249 315 305 70 121 171 131 308 49
160 147 256 162 188 173 205 223 182 199 200 224 196 165 185 159 171 177 176 168 165 169 175 167 156 162 188 195 221 211 205 248 203 195 206 129 145 200 119 69 44 2 360 315 95 136 133 66 55
143 133 169 340 210 157 200 188 202 203 224 217 183 208 186 188 155 177 168 174 169 162 171 184 152 172 169 164 194 184 182 187 185 204 190 139 180 208 161 34 13 56 107 52 74 114 72 58 55
123 140 185 181 195 112 213 215 240 211 209 213 193 198 145 135 141 155 175 167 181 157 168 164 176 173 190 163 174 166 150 208 196 179 197 171 175 171 125 95 70 132 84 65 56 312 75 123 35
135 180 191 171 160 73 123 295 239 208 249 210 203 184 155 159 147 151 136 135 134 165 169 175 180 183 179 171 93 48 46 40 36 59 248 210 202 155 128 118 163 102 82 98 97 148 167 45 44
168 207 189 163 144 212 189 248 257 212 215 227 227 181 167 177 156 159 154 143 161 198 180 176 186 186 176 154 132 164 154 138 218 216 226 214 205 198 146 138 169 108 80 119 136 192 142 78 111
224 152 204 170 175 123 211 63 269 122 235 230 226 182 178 184 170 176 178 170 160 160 163 190 195 194 168 167 164 194 161 228 196 354 233 233 244 209 188 166 172 142 176 201 143 98 162 159 151
240 119 53 115 136 13 228 161 275 206 224 204 221 195 178 178 187 188 179 171 157 119 149 167 196 205 189 178 173 177 203 199 195 242 249 222 224 225 211 178 188 170 176 190 192 181 180 181 156
106 64 10 8 11 220 172 172 232 220 187 203 205 193 182 180 186 182 179 181 178 172 186 189 191 206 199 192 176 180 203 194 206 212 233 216 203 217 213 186 201 184 184 196 214 215 178 151 145
188 147 155 195 193 269 49 280 260 239 181 193 152 172 174 185 192 183 183 188 197 177 200 195 191 201 198 195 185 186 183 188 207 215 228 221 198 217 184 204 200 218 195 202 196 184 167 183 197
219 143 193 102 318 76 317 309 299 15 296 113 125 165 176 184 191 189 194 193 197 196 198 197 189 200 205 201 183 187 194 192 201 222 166 249 241 220 207 186 200 246 235 211 207 208 211 204 212
151 170 69 24 139 146 299 268 240 285 255 247 168 170 164 181 182 189 200 194 177 214 196 175 185 202 200 203 180 204 203 207 204 193 187 191 217 221 173 170 174 189 223 226 203 208 213 206 229
310 231 79 120 125 146 186 262 215 217 205 177 167 172 171 174 185 184 198 196 201 206 184 199 201 197 208 201 182 200 213 207 216 205 191 189 203 222 224 188 186 203 207 210 205 222 209 214 211
179 197 134 126 222 99 157 263 292 156 143 152 184 191 170 174 172 180 191 186 207 228 222 219 220 190 202 192 187 189 196 211 211 217 193 189 205 207 217 219 200 235 250 235 202 223 223 228 222